Location: Summit Observatory
(39.5293°N, 75.7290°W)
Time: 02:28:38
(UTC-05:00)

Amateur Radio Satellites - All Passes

Search period start: 06 March 2015 01:58
Search period end: 07 March 2015 01:58
Location: Summit Observatory, 39.5293°N, 75.7290°W

Satellite Date Start Highest point End Downlink Frequencies (MHz)
Time Altitude Azimuth
ITAMSAT 1 06 Mar 01:59:26 02:04:22 42° 98° (E) 02:09:17 435.822/435.867
BEESAT 2 06 Mar 02:07:43 02:11:24 31° 246° (WSW) 02:14:59 435.950
SO-50 06 Mar 02:16:32 02:19:44 18° 319° (NW) 02:22:55 436.795
HORYU 2 06 Mar 02:20:43 02:21:35 11° 88° (E) 02:22:45 437.375
AIST 2 06 Mar 02:24:56 02:29:07 57° 242° (WSW) 02:33:14 435.215
AO-7 06 Mar 02:24:56 02:26:34 11° 84° (E) 02:29:01 29.400- 29.500
RS-15 06 Mar 02:37:41 02:45:14 20° 347° (NNW) 02:52:46 29.354- 29.394
YUBILEINY 06 Mar 02:39:48 02:48:34 64° 79° (ENE) 02:57:20 435.215
AUBIESAT-1 06 Mar 03:12:54 03:15:57 35° 67° (ENE) 03:19:12 437.475
M-CUBED/EXP-1 PRIME 06 Mar 03:14:00 03:17:10 42° 68° (ENE) 03:20:29 437.505
Gurwin Techsat 1B 06 Mar 03:32:38 03:37:28 35° 291° (WNW) 03:42:13 435.225
STARS 06 Mar 03:34:36 03:37:00 14° 270° (W) 03:39:11 437.465
MOZHAYETS 4 06 Mar 03:35:24 03:39:41 43° 73° (ENE) 03:44:02
ITAMSAT 1 06 Mar 03:39:31 03:43:39 24° 294° (WNW) 03:47:39 435.822/435.867
SRMSAT 06 Mar 03:52:42 03:53:58 11° 180° (S) 03:55:14 437.500
HORYU 2 06 Mar 03:54:22 03:58:48 66° 285° (WNW) 04:03:13 437.375
JAS-2 06 Mar 04:02:55 04:10:19 52° 98° (E) 04:17:58 435.910
PCSat 06 Mar 04:09:27 04:14:11 30° 51° (NE) 04:18:58 145.827
AO-7 06 Mar 04:12:49 04:21:06 69° 104° (ESE) 04:29:22 29.400- 29.500
YUBILEINY 06 Mar 04:37:45 04:44:49 26° 277° (W) 04:51:31 435.215
AUBIESAT-1 06 Mar 04:50:01 04:51:10 11° 265° (W) 04:52:09 437.475
RS-15 06 Mar 04:54:55 05:03:15 23° 22° (NNE) 05:12:05 29.354- 29.394
PRISM 06 Mar 04:55:17 04:58:29 22° 68° (ENE) 05:01:48 437.425
MOZHAYETS 4 06 Mar 05:14:05 05:17:11 17° 269° (W) 05:20:07
STRAND 1 06 Mar 05:43:05 05:47:59 47° 72° (ENE) 05:52:57 437.568
CUBESAT XI-V 06 Mar 05:44:31 05:49:12 77° 76° (ENE) 05:53:57 437.345
JAS-2 06 Mar 05:48:24 05:55:06 35° 294° (WNW) 06:01:53 435.910
PCSat 06 Mar 05:52:41 05:57:42 38° 249° (WSW) 06:02:39 145.827
Cubesat XI-IV 06 Mar 05:55:02 06:00:04 41° 98° (E) 06:05:07 437.490
CUTE-I 06 Mar 06:02:48 06:07:58 48° 99° (E) 06:13:06 437.470
AO-7 06 Mar 06:06:37 06:13:20 27° 302° (WNW) 06:19:47 29.400- 29.500
PRISM 06 Mar 06:30:14 06:33:52 28° 264° (W) 06:37:29 437.425
ISS 06 Mar 06:31:58 06:34:20 19° 132° (SE) 06:36:45 145.825
AIST 1 06 Mar 06:37:18 06:41:39 79° 98° (E) 06:46:04
GONETS M04 06 Mar 06:54:15 06:59:41 18° 61° (ENE) 07:05:36
RS-15 06 Mar 07:07:27 07:18:44 62° 51° (NE) 07:30:34 29.354- 29.394
HO-68 06 Mar 07:16:50 07:19:13 12° 86° (E) 07:22:11 435.675
STRAND 1 06 Mar 07:23:44 07:27:30 20° 268° (W) 07:31:06 437.568
Cubesat XI-IV 06 Mar 07:35:37 07:39:59 25° 294° (WNW) 07:44:14 437.490
CUTE-I 06 Mar 07:43:39 07:47:45 22° 295° (WNW) 07:51:41 437.470
SEEDS 06 Mar 07:50:26 07:51:43 11° 89° (E) 07:53:15 437.485
CANX-2 06 Mar 07:58:26 08:01:29 19° 92° (E) 08:04:39 2200.000
ISS 06 Mar 08:07:30 08:10:35 41° 328° (NNW) 08:13:40 145.825
GOMX 1 06 Mar 08:13:14 08:16:51 27° 94° (E) 08:20:26 467.674
CUTE 1.7 + AOD 2 06 Mar 08:15:59 08:19:38 28° 95° (E) 08:23:20 437.475
BRITE-PL 06 Mar 08:27:56 08:32:21 64° 100° (E) 08:36:30 437.365/2234.400
DOVE 4 06 Mar 08:29:30 08:33:05 27° 95° (E) 08:36:40 437.250
TIGRISAT 06 Mar 08:39:03 08:40:47 12° 65° (ENE) 08:42:42 435.000
O/OREOS (USA 219) 06 Mar 08:39:43 08:44:17 78° 292° (WNW) 08:48:54 437.305
AAUSAT CUBESAT 2 06 Mar 08:44:58 08:48:49 35° 97° (E) 08:52:42 437.432
GONETS M04 06 Mar 08:49:10 08:57:59 90° 275° (W) 09:06:49
COMPASS 1 06 Mar 08:50:33 08:54:38 47° 99° (E) 08:58:43 437.405
ANTELSAT 06 Mar 08:53:31 08:56:28 19° 68° (ENE) 08:59:31 437.575/2403.000
UWE-3 06 Mar 08:55:30 08:57:07 12° 90° (E) 08:58:59 435.000/436.395/437.385
HO-68 06 Mar 09:00:58 09:08:12 80° 104° (ESE) 09:15:25 435.675
Oscar 11 06 Mar 09:06:20 09:10:05 29° 95° (E) 09:13:54 145.826/435.025
SO-50 06 Mar 09:06:27 09:11:15 48° 53° (NE) 09:16:01 436.795
BUGSAT 1 06 Mar 09:13:46 09:15:26 12° 65° (ENE) 09:17:19 437.445
RS-15 06 Mar 09:20:24 09:30:52 40° 251° (WSW) 09:41:25 29.354- 29.394
QB50P1 06 Mar 09:22:32 09:25:41 21° 68° (ENE) 09:28:56 145.935-145.965
SEEDS 06 Mar 09:23:48 09:27:58 56° 285° (WNW) 09:32:07 437.485
QB50P2 06 Mar 09:27:31 09:30:55 24° 69° (ENE) 09:34:24 145.880/145.840
DELFI C3 06 Mar 09:29:09 09:33:01 40° 98° (E) 09:36:54 145.870
CANX-2 06 Mar 09:33:41 09:37:32 33° 288° (WNW) 09:41:22 2200.000
HUMSAT D 06 Mar 09:35:03 09:37:16 14° 91° (E) 09:39:39 437.325/437.525
DX 1 06 Mar 09:37:31 09:41:16 28° 96° (E) 09:45:03 434.975-435.025
DUCHIFAT 1 06 Mar 09:38:41 09:42:24 30° 71° (ENE) 09:46:10 145.980
CUBEBUG 2 06 Mar 09:39:26 09:43:29 49° 99° (E) 09:47:34 437.445
CINEMA 3 06 Mar 09:45:18 09:49:27 73° 284° (WNW) 09:53:36 145.822/145.860
ISS 06 Mar 09:46:13 09:47:42 12° 347° (NNW) 09:49:09 145.825
UNISAT 6 06 Mar 09:49:37 09:53:59 77° 76° (ENE) 09:58:18 437.425
GOMX 1 06 Mar 09:51:32 09:54:56 23° 291° (WNW) 09:58:10 467.674
CUTE 1.7 + AOD 2 06 Mar 09:52:02 09:55:29 24° 290° (WNW) 09:58:52 437.475
FUNcube-1 06 Mar 09:58:58 10:03:03 55° 100° (E) 10:07:10 145.935
AISAT 06 Mar 09:59:25 10:02:41 21° 93° (E) 10:06:03 437.250
POPSAT HIP 1 06 Mar 10:01:33 10:05:45 56° 74° (ENE) 10:09:57 437.405
UKube-1 06 Mar 10:01:37 10:05:51 50° 100° (E) 10:10:04 .
ZACube-1 06 Mar 10:01:41 10:05:49 60° 100° (E) 10:09:58 437.345
POLYITAN 1 06 Mar 10:03:05 10:07:18 60° 75° (ENE) 10:11:31 437.675
VELOX 1 06 Mar 10:06:47 10:10:21 24° 94° (E) 10:13:58 145.980
DOVE 4 06 Mar 10:07:30 10:10:48 22° 291° (WNW) 10:13:57 437.250
BRITE-PL 06 Mar 10:08:57 10:10:19 11° 297° (WNW) 10:11:27 437.365/2234.400
TIGRISAT 06 Mar 10:12:49 10:17:08 59° 260° (W) 10:21:23 435.000
AAUSAT CUBESAT 2 06 Mar 10:21:16 10:24:16 19° 292° (WNW) 10:27:09 437.432
NANOSAT C BR1 06 Mar 10:23:02 10:27:19 82° 258° (WSW) 10:31:36 145.865
50 SAT 06 Mar 10:24:10 10:27:50 36° 98° (E) 10:31:32 437.505
DANDE 06 Mar 10:25:19 10:27:47 38° 79° (ENE) 10:30:22 436.750
COMPASS 1 06 Mar 10:27:37 10:30:00 14° 293° (WNW) 10:32:12 437.405
ANTELSAT 06 Mar 10:28:59 10:33:04 37° 262° (W) 10:37:05 437.575/2403.000
UWE-3 06 Mar 10:30:01 10:34:03 49° 286° (WNW) 10:38:06 435.000/436.395/437.385
CUSAT 1 06 Mar 10:31:14 10:33:50 85° 80° (E) 10:36:43 437.405
ESTCUBE 1 06 Mar 10:37:18 10:41:04 26° 94° (E) 10:44:54 437.505/2401.250
Oscar 11 06 Mar 10:42:41 10:46:11 24° 291° (WNW) 10:49:35 145.826/435.025
BUGSAT 1 06 Mar 10:46:16 10:50:30 59° 260° (W) 10:54:44 437.445
SO-50 06 Mar 10:47:48 10:51:31 21° 249° (WSW) 10:55:05 436.795
GONETS M04 06 Mar 10:48:28 10:53:46 17° 280° (W) 10:58:32
HO-68 06 Mar 10:50:09 10:55:14 20° 302° (WNW) 11:00:03 435.675
QB50P1 06 Mar 10:57:31 11:01:24 32° 263° (W) 11:05:15 145.935-145.965
QB50P2 06 Mar 11:03:01 11:06:45 28° 264° (W) 11:10:25 145.880/145.840
DELFI C3 06 Mar 11:05:24 11:07:56 16° 293° (WNW) 11:10:19 145.870
HUMSAT D 06 Mar 11:09:24 11:13:18 41° 287° (WNW) 11:17:11 437.325/437.525
DX 1 06 Mar 11:13:52 11:17:27 24° 291° (WNW) 11:20:55 434.975-435.025
DUCHIFAT 1 06 Mar 11:14:56 11:18:17 22° 266° (W) 11:21:34 145.980
CUBEBUG 2 06 Mar 11:17:45 11:19:51 13° 294° (WNW) 11:21:46 437.445
CUBEBUG 1 06 Mar 11:24:27 11:28:53 78° 102° (ESE) 11:33:14 437.445
ISS 06 Mar 11:24:34 11:25:16 11° 7° (N) 11:25:59 145.825
TISAT 1 06 Mar 11:31:00 11:33:57 19° 93° (E) 11:37:00 437.305
Oscar 19 06 Mar 11:31:48 11:35:07 18° 65° (ENE) 11:38:36 437.125/150
AISAT 06 Mar 11:35:23 11:39:25 34° 289° (WNW) 11:43:23 437.250
FUNcube-1 06 Mar 11:37:13 11:39:01 12° 294° (WNW) 11:40:37 145.935
UKube-1 06 Mar 11:39:10 11:41:39 15° 295° (WNW) 11:43:56 .
ZACube-1 06 Mar 11:40:22 11:41:46 11° 295° (WNW) 11:42:57 437.345
POPSAT HIP 1 06 Mar 11:40:23 11:42:04 12° 271° (W) 11:43:30 437.405
SPROUT 06 Mar 11:41:03 11:44:45 28° 95° (E) 11:48:28 437.525
POLYITAN 1 06 Mar 11:42:23 11:43:42 11° 271° (W) 11:44:45 437.675
VELOX 1 06 Mar 11:43:04 11:46:57 29° 290° (WNW) 11:50:44 145.980
50 SAT 06 Mar 12:00:04 12:02:35 16° 292° (WNW) 12:04:58 437.505
ESTCUBE 1 06 Mar 12:14:00 12:17:57 29° 290° (WNW) 12:21:49 437.505/2401.250
ISS 06 Mar 12:59:50 13:02:35 25° 27° (NNE) 13:05:22 145.825
SWISSCUBE 06 Mar 13:00:55 13:05:11 31° 96° (E) 13:09:28 437.505
TISAT 1 06 Mar 13:06:04 13:09:53 33° 289° (WNW) 13:13:39 437.305
BEESAT 06 Mar 13:08:40 13:13:03 35° 97° (E) 13:17:26 436.000
Oscar 19 06 Mar 13:09:04 13:14:05 55° 260° (W) 13:19:08 437.125/150
Gurwin Techsat 1B 06 Mar 13:13:00 13:17:55 41° 70° (ENE) 13:22:54 435.225
ITAMSAT 1 06 Mar 13:16:24 13:21:30 59° 73° (ENE) 13:26:40 435.822/435.867
SPROUT 06 Mar 13:17:17 13:20:45 23° 291° (WNW) 13:24:06 437.525
AO-7 06 Mar 13:21:49 13:27:00 19° 53° (NE) 13:32:33 29.400- 29.500
ITUPSAT 1 06 Mar 13:38:25 13:43:15 70° 101° (E) 13:48:03 437.325
YUBILEINY 06 Mar 13:49:07 13:52:12 13° 77° (ENE) 13:56:00 435.215
KKS-1 06 Mar 13:50:58 13:53:50 17° 92° (E) 13:56:51 437.445
JAS-2 06 Mar 14:16:57 14:20:30 17° 59° (ENE) 14:24:32 435.910
VERMONT LUNAR 06 Mar 14:35:02 14:37:12 16° 148° (SSE) 14:39:25 437.305
ISS 06 Mar 14:36:04 14:39:06 38° 224° (SW) 14:42:08 145.825
SWISSCUBE 06 Mar 14:38:55 14:42:57 27° 292° (WNW) 14:46:54 437.505
BEESAT 06 Mar 14:46:51 14:50:46 24° 292° (WNW) 14:54:32 436.000
HORYU 2 06 Mar 14:51:40 14:56:06 80° 257° (WSW) 15:00:33 437.375
Gurwin Techsat 1B 06 Mar 14:53:46 14:58:05 24° 267° (W) 15:02:17 435.225
ITAMSAT 1 06 Mar 14:58:11 15:01:29 16° 270° (W) 15:04:33 435.822/435.867
PHONESAT 2.4 06 Mar 15:09:22 15:11:22 14° 146° (SSE) 15:13:28 2401.200-2431.200
AO-7 06 Mar 15:10:25 15:18:46 84° 71° (ENE) 15:27:09 29.400- 29.500
ITUPSAT 1 06 Mar 15:18:17 15:20:37 13° 297° (WNW) 15:22:44 437.325
STARS 06 Mar 15:22:54 15:27:16 69° 285° (WNW) 15:31:36 437.465
KKS-1 06 Mar 15:26:32 15:30:43 40° 288° (WNW) 15:34:51 437.445
BEESAT 3 06 Mar 15:30:44 15:34:22 32° 115° (ESE) 15:38:06 437.485
MOZHAYETS 4 06 Mar 15:33:53 15:35:03 11° 88° (E) 15:36:32
YUBILEINY 06 Mar 15:39:01 15:47:41 76° 95° (E) 15:56:30 435.215
JAS-2 06 Mar 15:59:17 16:04:49 71° 259° (WSW) 16:11:08 435.910
BEESAT 2 06 Mar 16:00:37 16:04:40 60° 118° (ESE) 16:08:46 435.950
VERMONT LUNAR 06 Mar 16:11:16 16:14:42 61° 162° (SSE) 16:18:09 437.305
AIST 2 06 Mar 16:22:08 16:26:02 37° 115° (ESE) 16:30:02 435.215
AUBIESAT-1 06 Mar 16:28:20 16:32:32 41° 104° (ESE) 16:36:59 437.475
M-CUBED/EXP-1 PRIME 06 Mar 16:30:00 16:34:17 48° 104° (ESE) 16:38:51 437.505
PHONESAT 2.4 06 Mar 16:45:50 16:49:23 56° 160° (SSE) 16:52:58 2401.200-2431.200
AIST 1 06 Mar 16:46:31 16:49:30 18° 71° (ENE) 16:52:36
AO-7 06 Mar 17:06:51 17:12:38 19° 270° (W) 17:17:57 29.400- 29.500
MOZHAYETS 4 06 Mar 17:08:13 17:12:52 68° 285° (WNW) 17:17:28
BEESAT 3 06 Mar 17:09:08 17:12:32 24° 312° (NW) 17:15:53 437.485
O/OREOS (USA 219) 06 Mar 17:12:26 17:15:31 18° 55° (NE) 17:18:44 437.305
Cubesat XI-IV 06 Mar 17:16:03 17:21:20 62° 73° (ENE) 17:26:41 437.490
CUTE-I 06 Mar 17:23:41 17:29:00 72° 75° (ENE) 17:34:24 437.470
YUBILEINY 06 Mar 17:38:54 17:45:37 23° 296° (WNW) 17:52:01 435.215
BEESAT 2 06 Mar 17:40:42 17:43:16 15° 317° (NW) 17:45:45 435.950
CUBESAT XI-V 06 Mar 17:43:08 17:46:37 21° 92° (E) 17:50:12 437.345
VERMONT LUNAR 06 Mar 17:49:06 17:52:36 73° 358° (N) 17:56:05 437.305
STRAND 1 06 Mar 17:55:42 17:58:55 17° 91° (E) 18:02:20 437.568
AIST 2 06 Mar 18:01:19 18:04:47 23° 313° (NW) 18:08:12 435.215
AUBIESAT-1 06 Mar 18:03:52 18:07:11 21° 296° (WNW) 18:10:32 437.475
M-CUBED/EXP-1 PRIME 06 Mar 18:05:55 18:08:57 18° 297° (WNW) 18:11:58 437.505
PRISM 06 Mar 18:13:19 18:17:19 40° 98° (E) 18:21:19 437.425
AIST 1 06 Mar 18:23:18 18:27:21 36° 268° (W) 18:31:20
PHONESAT 2.4 06 Mar 18:24:11 18:27:49 75° 356° (N) 18:31:28 2401.200-2431.200
PCSat 06 Mar 18:50:29 18:55:07 31° 110° (ESE) 18:59:53 145.827
O/OREOS (USA 219) 06 Mar 18:50:51 18:55:16 46° 253° (WSW) 18:59:37 437.305
CANX-2 06 Mar 18:52:01 18:53:58 13° 66° (ENE) 18:56:06 2200.000
Cubesat XI-IV 06 Mar 18:58:37 19:01:58 16° 270° (W) 19:05:04 437.490
CUTE-I 06 Mar 19:06:59 19:09:44 13° 272° (W) 19:12:10 437.470
CUTE 1.7 + AOD 2 06 Mar 19:08:56 19:11:48 19° 68° (ENE) 19:14:48 437.475
GOMX 1 06 Mar 19:19:40 19:24:19 33° 71° (ENE) 19:28:50 467.674
CUBESAT XI-V 06 Mar 19:19:52 19:24:14 37° 288° (WNW) 19:28:31 437.345
VERMONT LUNAR 06 Mar 19:27:03 19:30:32 73° 196° (SSW) 19:34:01 437.305
HO-68 06 Mar 19:28:14 19:35:07 54° 69° (ENE) 19:42:04 435.675
STRAND 1 06 Mar 19:33:30 19:38:32 54° 288° (WNW) 19:43:30 437.568
DOVE 4 06 Mar 19:33:47 19:38:09 31° 71° (ENE) 19:42:23 437.250
AAUSAT CUBESAT 2 06 Mar 19:35:48 19:38:56 22° 69° (ENE) 19:42:11 437.432
BRITE-PL 06 Mar 19:36:28 19:42:03 71° 76° (ENE) 19:47:21 437.365/2234.400
COMPASS 1 06 Mar 19:41:29 19:45:02 29° 71° (ENE) 19:48:40 437.405
PRISM 06 Mar 19:49:44 19:52:32 17° 293° (WNW) 19:55:12 437.425
UWE-3 06 Mar 19:53:34 19:54:20 11° 65° (ENE) 19:55:19 435.000/436.395/437.385
GONETS M04 06 Mar 19:55:37 20:01:18 21° 81° (E) 20:07:26
Oscar 11 06 Mar 20:00:54 20:04:04 21° 68° (ENE) 20:07:21 145.826/435.025
PHONESAT 2.4 06 Mar 20:02:42 20:06:21 79° 193° (SSW) 20:09:59 2401.200-2431.200
SEEDS 06 Mar 20:14:51 20:19:01 89° 78° (ENE) 20:23:14 437.485
DELFI C3 06 Mar 20:16:51 20:20:00 23° 70° (ENE) 20:23:14 145.870
CANX-2 06 Mar 20:25:25 20:29:32 51° 261° (W) 20:33:39 2200.000
HUMSAT D 06 Mar 20:28:43 20:28:59 10° 65° (ENE) 20:29:30 437.325/437.525
DX 1 06 Mar 20:32:39 20:36:05 23° 68° (ENE) 20:39:37 434.975-435.025
PCSat 06 Mar 20:33:28 20:38:28 36° 307° (NW) 20:43:28 145.827
CUBEBUG 2 06 Mar 20:36:54 20:41:02 38° 73° (ENE) 20:45:04 437.445
CUTE 1.7 + AOD 2 06 Mar 20:43:39 20:47:32 35° 263° (W) 20:51:24 437.475
CINEMA 3 06 Mar 20:45:42 20:50:26 90° 78° (ENE) 20:54:58 145.822/145.860
FUNcube-1 06 Mar 20:54:03 20:58:03 39° 73° (ENE) 21:02:02 145.935
UKube-1 06 Mar 20:55:45 20:59:46 39° 72° (ENE) 21:03:51 .
ZACube-1 06 Mar 20:56:54 21:01:00 43° 73° (ENE) 21:05:02 437.345
AISAT 06 Mar 20:57:05 21:00:05 18° 67° (ENE) 21:03:14 437.250
GOMX 1 06 Mar 20:57:50 21:02:27 29° 265° (W) 21:06:47 467.674
VELOX 1 06 Mar 21:04:05 21:07:23 21° 68° (ENE) 21:10:47 145.980
VERMONT LUNAR 06 Mar 21:05:27 21:08:07 20° 210° (SSW) 21:10:44 437.305
50 SAT 06 Mar 21:10:38 21:13:32 20° 69° (ENE) 21:16:33 437.505
AAUSAT CUBESAT 2 06 Mar 21:10:51 21:14:28 28° 265° (W) 21:18:03 437.432
DOVE 4 06 Mar 21:11:30 21:15:54 28° 265° (W) 21:20:02 437.250
HO-68 06 Mar 21:17:14 21:23:13 27° 267° (W) 21:29:04 435.675
COMPASS 1 06 Mar 21:17:34 21:20:48 21° 267° (W) 21:23:57 437.405
BRITE-PL 06 Mar 21:17:56 21:21:03 14° 271° (W) 21:23:47 437.365/2234.400
UWE-3 06 Mar 21:26:01 21:30:25 71° 260° (W) 21:34:43 435.000/436.395/437.385
RS-15 06 Mar 21:30:56 21:40:34 40° 109° (ESE) 21:50:29 29.354- 29.394
Oscar 11 06 Mar 21:36:12 21:40:05 32° 264° (W) 21:43:57 145.826/435.025
ESTCUBE 1 06 Mar 21:36:34 21:40:01 22° 68° (ENE) 21:43:35 437.505/2401.250
PHONESAT 2.4 06 Mar 21:41:31 21:44:31 24° 209° (SSW) 21:47:28 2401.200-2431.200
UNISAT 6 06 Mar 21:43:35 21:46:17 17° 92° (E) 21:49:11 437.425
GONETS M04 06 Mar 21:48:36 21:57:18 77° 279° (W) 22:06:02
DELFI C3 06 Mar 21:51:44 21:55:08 25° 265° (W) 21:58:30 145.870
POLYITAN 1 06 Mar 21:52:54 21:53:12 10° 88° (E) 21:53:47 437.675
CUSAT 1 06 Mar 21:59:02 22:00:46 12° 94° (E) 22:02:41 437.405
HUMSAT D 06 Mar 22:00:08 22:04:18 68° 259° (W) 22:08:26 437.325/437.525
TIGRISAT 06 Mar 22:05:38 22:09:21 28° 96° (E) 22:13:09 435.000
DX 1 06 Mar 22:08:19 22:12:14 30° 264° (W) 22:16:06 434.975-435.025
NANOSAT C BR1 06 Mar 22:10:17 22:12:59 17° 92° (E) 22:15:48 145.865
CUBEBUG 2 06 Mar 22:14:49 22:17:54 18° 268° (W) 22:20:48 437.445
CUBEBUG 1 06 Mar 22:19:33 22:23:55 58° 74° (ENE) 22:28:19 437.445
ANTELSAT 06 Mar 22:21:29 22:25:38 44° 99° (E) 22:29:51 437.575/2403.000
TISAT 1 06 Mar 22:23:35 22:25:46 14° 66° (ENE) 22:28:06 437.305
BUGSAT 1 06 Mar 22:30:30 22:33:34 20° 93° (E) 22:36:41 437.445
FUNcube-1 06 Mar 22:31:43 22:34:36 17° 268° (W) 22:37:17 145.935
AISAT 06 Mar 22:32:09 22:36:25 42° 261° (W) 22:40:42 437.250
UKube-1 06 Mar 22:33:07 22:36:08 18° 268° (W) 22:39:00 .
SPROUT 06 Mar 22:34:57 22:38:08 21° 69° (ENE) 22:41:27 437.525
ZACube-1 06 Mar 22:34:58 22:37:37 15° 269° (W) 22:40:05 437.345
VELOX 1 06 Mar 22:39:37 22:43:46 36° 263° (W) 22:47:54 145.980
QB50P1 06 Mar 22:43:24 22:47:23 41° 98° (E) 22:51:23 145.935-145.965
50 SAT 06 Mar 22:44:58 22:48:25 27° 264° (W) 22:51:49 437.505
QB50P2 06 Mar 22:48:49 22:52:55 48° 99° (E) 22:57:01 145.880/145.840
DUCHIFAT 1 06 Mar 22:59:44 23:03:55 63° 101° (E) 23:08:03 145.980
ESTCUBE 1 06 Mar 23:12:36 23:16:44 34° 263° (W) 23:20:51 437.505/2401.250
UNISAT 6 06 Mar 23:19:15 23:23:19 40° 287° (WNW) 23:27:25 437.425
SO-50 06 Mar 23:21:41 23:24:41 18° 110° (ESE) 23:27:54 436.795
POPSAT HIP 1 06 Mar 23:23:35 23:27:47 66° 285° (WNW) 23:31:56 437.405
POLYITAN 1 06 Mar 23:25:27 23:29:38 62° 285° (WNW) 23:33:47 437.675
DANDE 06 Mar 23:34:40 23:41:08 89° 112° (ESE) 23:45:55 436.750
CUSAT 1 06 Mar 23:37:48 23:43:40 68° 280° (W) 23:48:01 437.405
RS-15 06 Mar 23:41:51 23:52:35 58° 310° (NW) 00:03:28 29.354- 29.394
TIGRISAT 06 Mar 23:42:32 23:46:02 24° 290° (WNW) 23:49:29 435.000
NANOSAT C BR1 06 Mar 23:45:08 23:49:03 37° 288° (WNW) 23:52:54 145.865
BEESAT 3 06 Mar 23:51:05 23:53:58 18° 45° (NE) 23:56:54 437.485
GONETS M04 06 Mar 23:51:17 23:55:59 15° 302° (WNW) 00:00:08
TISAT 1 06 Mar 23:57:01 00:01:11 50° 260° (W) 00:05:23 437.305
CUBEBUG 1 06 Mar 23:58:45 00:00:45 12° 271° (W) 00:02:28 437.445
ANTELSAT 06 Mar 23:59:23 00:02:09 16° 293° (WNW) 00:04:46 437.575/2403.000
BUGSAT 1 07 Mar 00:05:30 00:09:07 29° 289° (WNW) 00:12:38 437.445
SWISSCUBE 07 Mar 00:06:46 00:11:00 33° 70° (ENE) 00:15:19 437.505
SPROUT 07 Mar 00:10:08 00:14:04 33° 264° (W) 00:17:59 437.525
BEESAT 07 Mar 00:14:24 00:18:43 36° 71° (ENE) 00:23:08 436.000
QB50P1 07 Mar 00:20:16 00:22:59 16° 293° (WNW) 00:25:34 145.935-145.965
BEESAT 2 07 Mar 00:21:22 00:25:01 29° 50° (NE) 00:28:40 435.950
QB50P2 07 Mar 00:26:09 00:28:29 14° 294° (WNW) 00:30:38 145.880/145.840
DUCHIFAT 1 07 Mar 00:37:55 00:39:18 11° 295° (WNW) 00:40:25 145.980
ITUPSAT 1 07 Mar 00:44:17 00:49:03 73° 74° (ENE) 00:53:52 437.325
AIST 2 07 Mar 00:45:06 00:48:24 21° 46° (NE) 00:51:43 435.215
KKS-1 07 Mar 00:49:05 00:51:38 16° 66° (ENE) 00:54:21 437.445
SO-50 07 Mar 01:00:23 01:04:51 49° 307° (NW) 01:09:30 436.795
Oscar 19 07 Mar 01:21:24 01:26:27 56° 100° (E) 01:31:30 437.125/150
BEESAT 3 07 Mar 01:28:21 01:32:19 46° 243° (WSW) 01:36:13 437.485
ITAMSAT 1 07 Mar 01:30:58 01:34:55 22° 93° (E) 01:39:00 435.822/435.867
Gurwin Techsat 1B 07 Mar 01:31:07 01:34:26 17° 90° (E) 01:37:59 435.225
JUGNU 07 Mar 01:41:11 01:42:02 10° 179° (S) 01:42:54 437.505
SWISSCUBE 07 Mar 01:44:59 01:48:56 25° 266° (W) 01:52:49 437.505
